Date String (YYYY-MM-DD hh:mm:ss) UTC,Instrument flags,Ambient pressure (hPa),Sample flow (lpm),Bypass flow (lpm),Sample temperature (°C),Ambient temperature (°C),ASC tube jacket temperature (°C),LED temperature (°C),Box temperature (°C),Sample RH (%),Span deviation,Mass concentration (μg/m³),Mass concentration (μg/m³),Mass concentration (μg/m³)
DateTimeUTC,F1_M11,P_M11,Q1_M11,Q2_M11,T1_M11,T2_M11,T3_M11,T4_M11,T5_M11,U1_M11,ZSPAN_M11,X0_M11,X2_M11,X1_M11
2022-03-11 01:00:00,,0823.8,4.99,0.00,22.4,21.7,00.0,31.3,24.2,05.9,0000.0,0009.93,0007.17,0006.84
2022-03-11 01:01:00,,0823.8,5.00,0.00,22.4,21.7,00.0,31.3,24.2,05.9,0000.0,0010.14,0007.19,0006.85
2022-03-11 01:02:00,,0823.8,5.02,0.00,22.4,21.7,00.0,31.3,24.1,06.1,0000.0,0010.24,0007.23,0006.87
2022-03-11 01:03:00,,0823.8,5.00,0.00,22.4,21.6,00.0,31.3,24.1,06.2,0000.0,0010.22,0007.22,0006.87
2022-03-11 01:04:00,,0823.9,4.99,0.00,22.3,21.5,00.0,31.3,24.1,06.4,0000.0,0010.47,0007.24,0006.88
2022-03-11 01:05:00,,0823.9,5.00,0.00,22.3,21.4,00.0,31.3,24.0,06.5,0000.0,0010.40,0007.22,0006.88
2022-03-11 01:06:00,,0823.9,4.99,0.00,22.2,21.4,00.0,31.2,24.0,06.5,0000.0,0010.31,0007.19,0006.88
2022-03-11 01:07:00,,0824.0,5.02,0.00,22.2,21.3,00.0,31.2,24.0,06.6,0000.0,0010.29,0007.20,0006.87
2022-03-11 01:08:00,,0824.1,5.00,0.00,22.2,21.3,00.0,31.2,23.9,06.6,0000.0,0010.23,0007.20,0006.86
2022-03-11 01:09:00,,0824.1,4.99,0.00,22.2,21.3,00.0,31.2,23.9,06.6,0000.0,0010.23,0007.19,0006.85
2022-03-11 01:10:00,,0824.1,4.99,0.00,22.2,21.4,00.0,31.2,23.9,06.7,0000.0,0010.57,0007.18,0006.83
2022-03-11 01:11:00,,0824.1,5.01,0.00,22.2,21.3,00.0,31.2,23.9,06.7,0000.0,0010.39,0007.19,0006.80
2022-03-11 01:12:00,,0824.1,5.01,0.00,22.2,21.3,00.0,31.2,23.9,06.7,0000.0,0010.39,0007.23,0006.80
2022-03-11 01:13:00,,0824.1,5.00,0.00,22.1,21.3,00.0,31.2,23.9,06.7,0000.0,0010.35,0007.21,0006.78
2022-03-11 01:14:00,,0824.1,4.99,0.00,22.1,21.2,00.0,31.2,23.8,06.8,0000.0,0010.31,0007.16,0006.74
2022-03-11 01:15:00,,0824.1,4.99,0.00,22.1,21.1,00.0,31.2,23.8,06.8,0000.0,0010.34,0007.15,0006.69
2022-03-11 01:16:00,,0824.1,5.00,0.00,22.1,21.3,00.0,31.2,23.8,06.8,0000.0,0010.79,0007.13,0006.65
2022-03-11 01:17:00,,0824.1,5.00,0.00,22.2,22.0,00.0,31.2,24.0,06.8,0000.0,0011.10,0007.14,0006.61
2022-03-11 01:18:00,,0824.1,5.00,0.00,22.3,22.7,00.0,31.2,24.2,06.8,0000.0,0011.11,0007.13,0006.60
2022-03-11 01:19:00,,0824.0,5.01,0.00,22.4,22.6,00.0,31.2,24.3,06.7,0000.0,0011.18,0007.14,0006.59
2022-03-11 01:20:00,,0824.1,5.00,0.00,22.4,22.3,00.0,31.2,24.3,06.7,0000.0,0011.21,0007.12,0006.57
2022-03-11 01:21:00,,0824.1,5.00,0.00,22.4,22.0,00.0,31.2,24.2,06.7,0000.0,0010.95,0007.08,0006.56
2022-03-11 01:22:00,,0824.1,5.00,0.00,22.3,21.8,00.0,31.2,24.1,06.8,0000.0,0011.45,0007.03,0006.54
2022-03-11 01:23:00,,0824.1,4.99,0.00,22.3,21.6,00.0,31.2,24.1,06.8,0000.0,0011.56,0006.99,0006.52
2022-03-11 01:24:00,,0824.1,5.00,0.00,22.3,21.6,00.0,31.2,24.0,06.8,0000.0,0011.50,0006.95,0006.51
2022-03-11 01:25:00,,0824.1,5.01,0.00,22.3,21.5,00.0,31.2,24.0,06.8,0000.0,0011.66,0006.98,0006.51
2022-03-11 01:26:00,,0824.2,4.99,0.00,22.2,21.5,00.0,31.2,24.0,06.8,0000.0,0011.57,0006.97,0006.53
2022-03-11 01:27:00,,0824.2,5.00,0.00,22.2,21.4,00.0,31.2,23.9,06.8,0000.0,0011.07,0006.97,0006.54
2022-03-11 01:28:00,,0824.2,5.00,0.00,22.2,21.4,00.0,31.2,23.9,06.9,0000.0,0010.76,0006.97,0006.58
2022-03-11 01:29:00,,0824.2,5.01,0.00,22.2,21.4,00.0,31.2,23.9,06.9,0000.0,0011.01,0007.01,0006.61
2022-03-11 01:30:00,,0824.2,5.00,0.00,22.2,21.3,00.0,31.2,23.9,06.9,0000.0,0011.03,0007.03,0006.65
2022-03-11 01:31:00,,0824.1,5.00,0.00,22.1,21.3,00.0,31.2,23.9,06.9,0000.2,0011.05,0007.07,0006.66
2022-03-11 01:32:00,,0824.2,4.99,0.00,22.1,21.2,00.0,31.2,23.9,06.9,0000.0,0011.12,0007.08,0006.66
2022-03-11 01:33:00,,0824.2,5.00,0.00,22.1,21.2,00.0,31.1,23.9,06.9,0000.6,0010.35,0007.09,0006.65
2022-03-11 01:34:00,,0824.2,5.02,0.00,22.1,21.2,00.0,31.1,23.9,06.9,0000.7,0010.24,0007.10,0006.65
2022-03-11 01:35:00,,0824.2,5.01,0.00,22.1,21.2,00.0,31.1,23.8,06.9,0000.0,0011.11,0007.10,0006.63
2022-03-11 01:36:00,,0824.3,4.99,0.00,22.1,21.2,00.0,31.1,23.8,06.9,0000.0,0010.88,0007.05,0006.61
2022-03-11 01:37:00,,0824.3,5.00,0.00,22.0,21.2,00.0,31.1,23.8,06.8,0000.0,0010.85,0007.03,0006.58
2022-03-11 01:38:00,,0824.3,5.00,0.00,22.1,21.5,00.0,31.1,23.8,06.8,0000.0,0010.83,0007.00,0006.56
2022-03-11 01:39:00,,0824.3,5.01,0.00,22.2,22.2,00.0,31.2,24.0,06.8,0000.0,0010.63,0006.94,0006.52
2022-03-11 01:40:00,,0824.3,4.99,0.00,22.3,22.8,00.0,31.2,24.3,06.7,0000.0,0010.35,0006.88,0006.46
2022-03-11 01:41:00,,0824.3,4.99,0.00,22.4,22.7,00.0,31.2,24.3,06.7,0000.0,0010.25,0006.82,0006.41
2022-03-11 01:42:00,,0824.3,5.01,0.00,22.4,22.5,00.0,31.2,24.3,06.6,0000.0,0010.89,0006.79,0006.36
2022-03-11 01:43:00,,0824.4,5.00,0.00,22.4,22.3,00.0,31.3,24.3,06.6,0000.0,0011.47,0006.76,0006.33
2022-03-11 01:44:00,,0824.3,5.00,0.00,22.4,22.2,00.0,31.3,24.3,06.6,0000.0,0011.50,0006.74,0006.31
2022-03-11 01:45:00,,0824.3,5.00,0.00,22.4,22.0,00.0,31.3,24.3,06.6,0000.0,0011.46,0006.70,0006.30
2022-03-11 01:46:00,,0824.3,5.00,0.00,22.4,22.0,00.0,31.3,24.2,06.6,0000.0,0010.54,0006.68,0006.29
2022-03-11 01:47:00,,0824.3,4.99,0.00,22.4,21.9,00.0,31.3,24.2,06.6,0000.0,0010.56,0006.67,0006.28
2022-03-11 01:48:00,,0824.4,5.00,0.00,22.4,21.8,00.0,31.3,24.2,06.6,0000.0,0010.60,0006.67,0006.28
2022-03-11 01:49:00,,0824.3,5.00,0.00,22.4,21.8,00.0,31.3,24.1,06.6,0000.0,0010.58,0006.68,0006.27
2022-03-11 01:50:00,,0824.3,5.00,0.00,22.3,21.7,00.0,31.3,24.1,06.6,0000.0,0010.63,0006.67,0006.27
2022-03-11 01:51:00,,0824.3,5.00,0.00,22.3,21.6,00.0,31.3,24.1,06.6,0000.0,0010.62,0006.65,0006.26
2022-03-11 01:52:00,,0824.3,5.00,0.00,22.3,21.6,00.0,31.3,24.1,06.6,0000.0,0010.69,0006.64,0006.26
2022-03-11 01:53:00,,0824.4,5.00,0.00,22.3,21.5,00.0,31.3,24.1,06.6,0000.0,0010.26,0006.62,0006.25
2022-03-11 01:54:00,,0824.5,5.02,0.00,22.3,21.5,00.0,31.3,24.0,06.6,0000.0,0009.44,0006.60,0006.24
2022-03-11 01:55:00,,0824.4,5.00,0.00,22.3,21.5,00.0,31.3,24.0,06.6,0000.0,0009.35,0006.59,0006.24
2022-03-11 01:56:00,,0824.4,5.00,0.00,22.3,21.5,00.0,31.3,24.0,06.6,0000.0,0009.00,0006.58,0006.25
2022-03-11 01:57:00,,0824.4,5.00,0.00,22.3,21.4,00.0,31.2,24.0,06.6,0000.0,0009.08,0006.58,0006.23
2022-03-11 01:58:00,,0824.4,5.01,0.00,22.2,21.4,00.0,31.2,24.0,06.5,0000.0,0009.13,0006.60,0006.24
2022-03-11 01:59:00,,0824.4,5.00,0.00,22.2,21.4,00.0,31.2,24.0,06.5,0001.0,0009.13,0006.61,0006.24
